Probability
84 100 100 100 100 100 100 100 100 100 100 100 100 100 100 100 100 100 100 100 100 100 100 100 100 100 100 100 100 100 100 100 100 100 100 100 100 100 100 100 100 97 100
100 97 100 100 100 100 100 100 100 100 100 100 100 100 100 100 100 100 100 100 100 100 100 100 100 100 100 100 100 100 100 100 100 100 100 100 100 100 100 100 100 100 100
100 97 100 100 100 100 100 100 100 100 100 100 100 100 100 100 100 100 100 100 100 100 100 100 100 100 100 100 100 100 100 100 100 100 100 97 100 100 100 97 100 100 100
100 97 87 100 100 100 100 100 100 100 100 100 100 100 100 100 100 100 100 100 100 100 100 100 100 100 100 100 100 100 100 100 100 100 94 77 94 100 100 100 100 100 100
100 100 100 100 100 100 100 100 100 100 100 100 100 100 100 100 100 100 100 100 100 100 100 97 97 100 97 97 97 97 97 100 100 100 74 77 97 100 100 100 100 100 100
100 100 100 100 100 100 100 100 100 100 100 100 100 100 100 100 100 100 100 100 100 97 97 87 87 84 84 81 77 81 84 94 97 74 77 81 97 100 100 100 100 100 100
100 100 100 100 100 100 100 100 100 100 100 100 100 100 100 100 100 100 100 100 97 87 81 81 77 74 71 68 71 74 74 84 84 58 74 77 100 100 100 100 100 100 100
100 100 100 100 100 100 100 100 100 100 100 100 100 100 100 100 100 100 100 100 94 84 81 68 52 48 48 52 61 61 65 65 58 48 65 90 97 94 100 100 100 97 100
94 100 100 100 100 100 100 100 100 100 100 100 100 100 100 100 100 100 100 94 90 81 68 52 45 35 35 39 42 52 58 61 58 55 45 87 94 97 100 100 100 100 97
90 100 100 100 100 97 97 100 100 100 100 100 100 100 100 100 100 97 97 94 87 81 65 58 55 42 48 45 42 39 48 48 42 32 39 84 90 94 97 97 97 94 94
87 100 100 97 100 100 97 100 100 100 100 100 100 100 100 87 81 90 94 90 84 74 74 68 68 61 52 45 48 52 39 23 13 16 42 81 90 90 100 100 97 94 94
90 94 100 100 100 100 100 100 100 100 100 100 100 97 94 90 90 61 90 97 87 87 77 77 71 68 55 52 48 32 16 16 3 10 48 71 77 97 94 97 97 94 87
94 90 94 100 100 100 100 100 100 100 100 97 97 100 100 97 87 58 87 97 94 87 84 81 77 58 45 42 45 10 13 10 0 0 48 77 74 74 84 87 87 81 81
84 90 94 100 100 100 100 100 100 100 100 97 97 100 90 90 81 58 81 55 81 84 81 74 61 52 45 35 26 6 6 10 6 3 61 74 74 71 74 84 87 77 74
81 90 87 100 100 100 100 100 100 100 97 90 97 94 87 65 68 58 77 94 77 71 77 77 55 55 45 29 19 10 13 10 13 10 45 68 65 74 77 77 71 68 61
81 87 94 97 100 100 100 100 100 100 100 87 87 90 81 74 65 87 90 100 90 84 81 77 65 68 52 32 29 29 35 23 32 45 35 58 61 61 68 77 61 58 48
90 94 97 97 100 100 100 100 100 97 97 84 84 90 94 77 94 94 81 100 97 97 94 87 87 77 68 48 48 52 42 42 39 48 35 39 42 48 58 55 55 45 32
94 97 97 97 97 100 100 100 100 90 90 90 90 87 87 81 81 97 94 87 90 87 87 87 81 74 58 52 48 42 26 45 26 35 32 35 32 16 26 23 29 39 29
100 100 100 97 97 100 100 97 97 94 94 90 84 84 87 84 84 87 90 87 87 81 81 65 52 58 61 48 39 35 16 13 19 10 16 19 19 19 13 10 13 10 10
97 100 100 100 100 100 97 94 94 94 87 87 84 87 77 81 77 84 81 77 68 74 68 48 39 39 35 35 10 3 10 3 6 10 6 6 6 6 6 3 6 3 3
94 97 97 100 100 97 94 94 90 87 84 77 71 68 61 65 68 68 58 55 52 45 35 26 19 13 13 3 3 10 3 0 0 0 3 0 0 3 3 3 0 3 0
87 84 94 94 97 94 94 94 84 81 55 52 52 52 42 42 42 39 39 23 23 23 19 26 16 10 6 3 3 3 0 0 0 0 0 0 0 0 0 0 0 0 0
71 74 81 84 84 87 87 84 77 61 42 29 29 19 23 16 19 23 13 13 13 13 10 6 6 3 3 0 0 0 0 0 0 0 0 0 0 0 0 0 0 0 0
52 61 65 74 68 74 77 81 68 58 35 23 19 13 10 6 3 3 3 6 6 3 3 3 0 0 0 0 3 0 0 0 0 0 0 0 0 0 0 0 0 0 0
32 35 45 52 52 58 65 58 55 42 23 13 13 6 3 3 3 3 0 0 0 0 0 0 0 0 0 0 0 0 0 0 0 0 0 0 0 0 0 0 0 0 0
10 16 23 29 29 32 32 29 23 16 13 10 6 6 3 0 0 0 0 0 0 0 0 0 0 0 0 0 0 0 0 0 0 0 0 0 0 0 0 0 0 0 0
Height
5906 5906 5906 5907 5907 5907 5908 5909 5910 5911 5911 5911 5911 5911 5911 5910 5910 5910 5910 5910 5910 5910 5910 5910 5909 5909 5909 5909 5909 5908 5908 5908 5907 5907 5906 5906 5905 5905 5905 5905 5904 5904 5904
5904 5904 5905 5905 5905 5906 5907 5908 5909 5909 5910 5910 5909 5909 5909 5909 5909 5909 5909 5909 5909 5909 5909 5908 5908 5908 5907 5907 5907 5907 5906 5906 5906 5905 5905 5904 5904 5904 5903 5903 5903 5902 5902
5902 5902 5903 5903 5904 5904 5905 5906 5907 5908 5908 5908 5908 5908 5908 5907 5907 5908 5908 5908 5908 5908 5907 5907 5907 5906 5906 5906 5905 5905 5905 5904 5904 5903 5903 5902 5902 5902 5901 5901 5900 5900 5900
5900 5900 5900 5901 5902 5902 5903 5904 5905 5906 5906 5906 5906 5906 5906 5906 5906 5906 5906 5906 5906 5906 5906 5906 5906 5905 5905 5904 5904 5903 5903 5903 5902 5902 5901 5900 5900 5900 5899 5899 5898 5898 5898
5898 5898 5898 5899 5900 5900 5901 5902 5903 5904 5904 5904 5904 5904 5905 5905 5905 5905 5905 5905 5905 5905 5905 5905 5905 5904 5904 5903 5903 5902 5902 5901 5901 5900 5899 5899 5898 5898 5897 5897 5897 5896 5896
5895 5895 5896 5896 5897 5898 5899 5900 5901 5902 5902 5902 5903 5903 5903 5903 5904 5904 5904 5905 5905 5905 5905 5904 5904 5903 5903 5902 5902 5901 5900 5899 5899 5898 5898 5897 5896 5896 5895 5895 5895 5894 5894
5894 5893 5894 5894 5895 5896 5897 5898 5899 5900 5901 5901 5901 5902 5902 5902 5902 5903 5903 5904 5904 5904 5904 5903 5903 5902 5902 5901 5900 5900 5899 5898 5897 5897 5896 5895 5895 5894 5894 5893 5892 5892 5892
5892 5892 5892 5892 5893 5894 5895 5896 5897 5898 5899 5899 5900 5900 5901 5901 5901 5902 5902 5903 5903 5903 5903 5903 5902 5901 5900 5900 5899 5898 5898 5897 5896 5895 5894 5893 5893 5892 5892 5891 5890 5890 5889
5890 5890 5890 5890 5891 5892 5893 5894 5895 5896 5897 5898 5898 5899 5899 5900 5900 5901 5901 5902 5902 5902 5902 5902 5901 5900 5899 5898 5898 5897 5896 5895 5894 5893 5892 5892 5891 5890 5889 5888 5888 5887 5887
5888 5888 5888 5889 5890 5891 5891 5893 5894 5895 5895 5896 5897 5897 5898 5899 5899 5900 5900 5901 5901 5901 5901 5901 5900 5899 5898 5897 5896 5895 5894 5893 5892 5891 5890 5890 5889 5888 5887 5886 5885 5885 5884
5887 5887 5887 5888 5888 5889 5890 5891 5892 5893 5894 5895 5895 5896 5897 5897 5898 5899 5899 5899 5900 5900 5899 5899 5898 5897 5896 5895 5894 5893 5892 5891 5890 5889 5888 5887 5886 5885 5884 5883 5882 5882 5881
5886 5885 5886 5886 5887 5888 5889 5889 5891 5892 5892 5893 5894 5895 5895 5896 5896 5897 5897 5897 5898 5898 5897 5897 5896 5895 5894 5893 5892 5891 5890 5889 5887 5886 5885 5884 5883 5882 5881 5880 5879 5879 5878
5884 5884 5884 5885 5885 5886 5887 5888 5889 5890 5891 5892 5893 5893 5894 5894 5895 5895 5895 5896 5896 5895 5895 5895 5894 5893 5892 5891 5890 5889 5887 5886 5884 5883 5882 5881 5880 5879 5878 5877 5876 5875 5874
5883 5883 5883 5883 5884 5885 5886 5887 5888 5889 5889 5890 5891 5891 5892 5892 5893 5893 5893 5893 5893 5893 5892 5892 5891 5890 5889 5888 5887 5886 5884 5883 5881 5880 5879 5877 5876 5875 5874 5873 5872 5871 5871
5881 5881 5881 5882 5882 5883 5884 5885 5886 5887 5888 5888 5889 5889 5890 5890 5890 5890 5890 5890 5890 5889 5889 5888 5888 5887 5886 5885 5883 5882 5881 5879 5878 5876 5875 5874 5872 5871 5870 5869 5868 5867 5867
5879 5879 5880 5880 5881 5882 5882 5883 5884 5885 5886 5886 5887 5887 5887 5888 5888 5888 5887 5887 5886 5886 5885 5885 5884 5883 5882 5881 5880 5879 5877 5876 5874 5873 5871 5870 5868 5867 5866 5865 5864 5863 5862
5877 5877 5878 5878 5879 5880 5880 5881 5882 5883 5883 5884 5884 5884 5884 5884 5885 5884 5884 5883 5883 5882 5881 5880 5879 5878 5877 5876 5875 5874 5872 5871 5870 5868 5867 5865 5864 5862 5861 5860 5859 5858 5856
5874 5875 5876 5876 5877 5877 5878 5879 5880 5880 5881 5881 5881 5881 5881 5881 5881 5880 5880 5879 5878 5877 5876 5875 5874 5873 5871 5870 5869 5868 5867 5865 5864 5863 5861 5860 5858 5857 5856 5855 5853 5852 5851
5872 5872 5873 5874 5874 5875 5876 5876 5877 5877 5877 5877 5877 5877 5877 5876 5876 5875 5874 5873 5872 5871 5870 5869 5868 5866 5865 5864 5862 5861 5860 5858 5857 5856 5855 5854 5852 5851 5849 5848 5846 5845 5844
5869 5870 5870 5871 5871 5872 5873 5873 5873 5873 5873 5873 5873 5872 5871 5871 5870 5870 5868 5867 5866 5864 5863 5862 5860 5859 5858 5856 5855 5854 5853 5851 5850 5849 5847 5846 5845 5844 5842 5840 5839 5837 5835
5865 5866 5867 5868 5868 5869 5869 5869 5868 5868 5868 5867 5867 5866 5865 5865 5864 5863 5862 5861 5859 5857 5855 5854 5853 5852 5851 5850 5849 5847 5846 5844 5843 5841 5840 5838 5837 5835 5833 5832 5830 5828 5826
5861 5862 5863 5863 5864 5864 5864 5864 5863 5863 5862 5861 5860 5859 5859 5858 5857 5857 5856 5854 5852 5850 5849 5849 5847 5844 5844 5842 5840 5839 5838 5837 5835 5833 5832 5829 5828 5826 5824 5822 5820 5818 5816
5856 5857 5858 5858 5859 5859 5858 5858 5857 5857 5857 5856 5855 5854 5852 5851 5851 5850 5849 5847 5845 5844 5842 5841 5839 5837 5836 5834 5832 5831 5830 5828 5826 5825 5823 5820 5818 5816 5814 5811 5809 5807 5804
5851 5852 5852 5853 5853 5853 5852 5852 5852 5851 5850 5850 5848 5846 5845 5844 5843 5842 5841 5840 5838 5836 5834 5832 5831 5829 5827 5825 5823 5822 5820 5819 5816 5814 5812 5810 5807 5805 5802 5800 5797 5794 5791
5846 5847 5847 5848 5848 5847 5846 5846 5845 5844 5843 5841 5840 5839 5838 5837 5836 5835 5834 5833 5831 5828 5826 5825 5822 5820 5818 5816 5815 5813 5811 5808 5806 5803 5800 5798 5795 5792 5790 5786 5783 5780 5776
5841 5841 5842 5842 5842 5841 5840 5839 5838 5837 5835 5833 5831 5831 5830 5829 5828 5827 5825 5823 5822 5820 5818 5816 5814 5812 5809 5807 5805 5803 5800 5797 5794 5791 5788 5785 5782 5778 5775 5771 5767 5763 5760
Wind_Speed
6 7 7 8 8 8 8 9 9 9 9 8 8 7 5 4 4 3 3 2 2 2 2 2 2 2 3 3 4 4 4 4 5 5 6 7 8 8 9 10 10 11 11
7 7 7 8 8 9 9 10 10 10 10 9 8 7 6 5 5 5 4 3 3 3 2 2 2 3 3 3 3 4 4 4 5 5 6 7 8 9 9 10 11 11 12
8 8 8 8 9 9 10 11 11 11 10 9 8 8 7 6 6 5 5 4 3 3 3 3 3 3 3 3 4 4 4 5 5 6 7 7 8 9 9 10 11 11 12
8 9 9 9 10 10 10 11 11 11 11 10 9 8 7 7 6 5 5 4 4 3 3 3 3 3 3 4 4 5 5 5 6 7 7 8 8 9 10 10 11 11 12
8 9 9 9 9 10 11 12 12 12 11 10 10 9 8 7 7 6 5 4 4 4 3 3 3 3 4 4 5 5 6 7 7 8 9 9 9 10 10 11 11 11 11
8 8 9 9 9 10 12 12 13 12 12 11 10 9 9 8 7 6 5 5 4 4 4 4 4 4 5 5 6 7 7 8 9 9 10 10 11 11 11 12 11 11 11
6 8 8 9 9 10 12 12 13 12 12 11 11 10 9 8 7 6 5 5 4 4 4 4 4 5 6 6 7 8 8 9 10 10 11 11 12 12 12 12 12 12 12
6 7 8 9 10 11 12 12 12 13 12 11 11 10 9 8 8 7 6 5 5 4 4 4 4 5 6 8 8 9 9 10 11 11 12 12 12 13 13 13 13 12 12
6 7 8 9 10 11 12 12 12 12 12 11 11 10 10 9 8 7 6 6 5 4 4 4 5 6 8 9 9 10 11 11 12 12 13 13 13 13 14 14 13 13 13
7 8 9 10 11 12 12 12 12 12 12 12 11 11 10 9 8 7 6 6 5 4 4 5 5 7 8 9 10 10 11 12 13 13 14 14 14 14 14 14 15 15 15
7 8 9 10 11 12 13 13 13 12 12 12 12 11 10 9 8 8 7 7 6 6 6 6 7 8 9 10 11 11 12 13 14 14 14 14 15 15 15 15 15 16 16
7 8 10 11 12 13 13 13 13 13 13 12 12 11 11 9 9 9 8 8 8 8 8 8 9 9 10 11 12 12 13 14 15 16 15 15 16 16 16 16 16 16 17
8 9 10 11 12 13 13 13 13 13 13 13 12 12 11 10 10 10 10 10 10 10 10 10 11 12 12 13 13 14 15 16 16 16 16 16 17 17 17 17 18 18 18
9 10 11 12 12 13 13 13 13 14 14 13 13 13 12 12 12 12 12 12 12 12 13 13 14 14 15 15 15 16 16 17 17 18 18 17 18 18 18 18 19 19 20
11 11 12 13 13 13 14 14 14 14 14 14 14 14 14 14 14 15 15 15 15 15 16 16 16 17 18 18 18 18 18 18 19 19 19 19 19 19 19 19 20 20 20
13 13 13 13 14 14 15 15 15 15 15 16 16 16 16 17 17 17 18 18 18 19 19 19 20 20 21 21 20 20 20 21 21 21 21 21 21 21 21 21 22 22 22
14 15 15 15 15 16 16 16 16 17 17 17 18 18 19 19 20 20 21 22 22 23 23 23 24 24 24 23 23 23 23 24 24 24 24 24 23 24 24 24 24 24 24
16 16 17 17 17 18 18 18 18 18 19 19 20 21 22 22 23 24 25 26 26 26 27 27 27 27 27 27 27 27 27 27 27 27 27 27 27 27 27 27 27 27 28
18 18 18 19 19 20 20 20 20 21 21 22 22 24 25 27 27 28 28 29 30 30 30 30 31 31 29 29 29 29 30 29 29 29 30 30 29 29 30 30 31 31 32
20 19 19 20 21 21 23 23 23 24 24 25 26 27 28 29 30 31 31 31 32 32 32 33 34 33 32 31 31 32 30 31 31 31 32 32 32 33 33 34 35 36 36
22 22 22 22 24 24 26 27 27 28 29 29 30 30 30 31 32 32 31 32 33 34 34 34 35 34 34 33 32 32 32 32 32 34 34 34 35 35 36 37 38 40 41
24 24 24 25 26 28 28 30 30 31 33 33 32 32 32 32 32 32 31 32 33 31 33 34 33 32 32 32 31 30 31 32 33 35 36 36 37 39 40 41 41 42 43
27 26 27 27 29 30 30 31 31 32 32 34 35 36 35 34 35 34 32 32 32 32 32 30 30 31 31 32 32 32 32 33 34 36 38 39 40 42 43 43 45 46 48
29 29 29 29 31 32 32 31 33 34 34 36 36 36 36 35 35 35 35 33 33 32 32 32 34 34 34 34 34 35 36 37 39 40 40 42 44 45 46 48 50 51 52
30 30 31 31 32 32 30 31 32 34 35 36 36 36 36 36 36 36 36 37 35 34 34 35 36 35 35 36 37 38 40 41 42 43 44 45 46 48 50 51 53 55 57
31 32 32 32 32 31 31 32 33 34 35 36 35 34 35 37 38 38 39 39 37 37 37 37 37 38 39 39 40 41 42 44 44 46 48 50 51 52 54 56 58 60 61
Wind_Direction
205 203 204 206 206 207 207 206 207 209 212 213 212 212 217 222 225 222 219 216 217 227 242 257 272 281 276 268 262 261 262 265 272 276 277 276 275 273 272 270 268 267 268
218 216 213 208 208 207 207 207 211 216 219 220 221 222 225 226 227 227 229 228 229 233 240 249 261 265 263 259 254 257 261 265 268 271 271 270 271 271 272 273 271 270 269
225 222 220 213 208 207 208 210 215 220 223 224 224 224 225 226 228 230 231 231 232 233 237 247 252 251 254 259 263 266 271 274 274 272 272 271 272 272 272 274 273 272 271
230 223 220 213 209 208 209 212 218 223 225 223 221 222 223 225 227 229 230 226 226 231 239 243 246 251 258 265 272 278 283 283 282 279 277 275 274 274 276 276 275 274 272
234 225 220 213 208 208 209 212 216 221 223 221 219 220 220 222 225 224 224 222 224 234 240 242 252 261 267 274 281 287 290 290 287 282 279 277 276 276 277 278 278 275 271
238 228 220 213 208 208 209 212 215 219 219 217 217 218 219 220 219 219 221 222 226 234 239 247 258 270 277 283 288 291 293 292 289 286 284 281 278 276 276 276 275 274 269
238 227 219 214 211 210 210 211 213 215 215 214 214 216 216 215 216 219 221 223 225 230 240 252 265 277 285 289 293 295 296 296 293 289 286 284 281 277 277 276 275 273 270
241 224 217 215 213 211 209 210 211 212 212 212 214 213 213 215 217 219 219 221 223 227 239 255 270 282 289 294 297 299 300 299 295 291 288 286 283 280 277 275 274 273 271
243 225 216 214 210 208 208 209 211 211 211 211 212 213 214 215 216 217 219 224 226 231 249 266 278 285 292 298 300 301 303 303 300 296 293 290 287 285 282 278 276 274 274
241 227 215 212 208 207 207 208 210 210 211 211 212 213 215 215 217 220 228 234 236 246 258 270 282 289 292 297 301 300 300 301 302 301 298 295 294 292 288 283 279 275 273
242 225 213 207 206 206 207 207 208 210 211 212 212 213 216 219 222 230 239 244 247 255 262 271 279 288 292 296 299 300 300 300 302 302 301 299 296 294 292 288 283 279 276
242 223 211 205 204 206 206 207 210 211 212 214 216 219 220 223 231 239 245 250 256 262 268 273 277 286 291 295 298 299 299 300 301 301 300 298 296 293 292 290 286 282 279
241 222 209 203 203 205 207 209 211 213 216 219 221 222 225 231 239 245 251 256 261 265 270 275 279 283 287 290 294 295 295 297 299 299 299 298 297 296 294 290 287 284 283
236 223 209 206 206 208 210 212 214 216 220 223 226 228 233 241 246 250 255 259 261 266 270 273 277 279 283 286 289 291 291 294 295 295 295 296 297 297 296 292 289 288 285
233 222 212 211 210 210 212 215 218 220 224 229 234 238 244 248 252 255 258 260 262 265 269 271 274 276 278 282 286 288 289 290 292 292 293 294 295 295 295 293 291 288 285
232 224 217 214 214 214 215 219 223 225 230 235 239 245 249 253 256 259 261 262 264 266 268 270 272 273 275 277 280 282 284 286 287 289 290 291 292 292 292 291 289 286 284
230 224 219 219 220 219 219 223 227 231 237 241 245 249 252 256 259 261 263 264 266 267 268 269 269 271 272 274 276 278 280 281 283 284 286 288 288 288 287 287 286 284 283
230 227 224 224 225 226 227 230 233 238 242 246 249 253 256 259 260 262 265 267 268 269 269 268 269 270 271 273 274 275 276 278 278 280 282 283 283 284 284 284 283 283 281
234 231 230 229 231 233 234 236 238 241 246 250 253 256 258 259 261 265 268 267 268 269 270 270 271 273 274 276 276 276 276 277 277 278 279 278 279 281 282 281 281 281 281
239 238 236 237 239 240 240 240 242 246 250 252 254 256 259 261 264 269 269 270 271 271 272 274 275 274 275 276 278 278 278 278 277 280 279 275 276 278 279 280 280 279 278
242 242 240 239 243 245 245 244 246 249 252 254 256 258 261 264 267 269 272 273 273 274 275 277 277 277 276 276 278 279 280 280 279 280 278 276 276 276 278 280 279 278 277
244 244 244 244 246 248 248 248 249 252 255 257 260 259 263 265 270 273 278 280 278 282 282 281 282 280 279 280 282 283 282 283 283 281 279 278 278 278 278 278 277 277 277
244 245 247 249 250 250 251 253 252 253 259 264 263 266 268 271 275 283 285 286 287 288 288 285 285 283 285 285 283 282 283 285 284 283 281 280 280 278 276 276 275 275 275
246 248 250 252 255 256 256 258 259 260 263 266 269 272 274 276 281 286 287 290 290 289 290 289 289 289 290 289 286 284 284 284 284 284 283 281 279 277 276 276 276 275 275
249 251 255 259 261 264 265 266 266 267 269 273 274 277 279 282 286 289 290 291 291 291 290 290 290 291 290 289 287 286 284 284 285 285 283 282 280 278 277 276 276 276 276
249 253 258 262 264 266 266 267 270 272 274 276 278 283 285 287 289 289 290 290 290 291 291 292 291 291 290 289 287 286 285 284 284 284 283 282 281 280 279 277 277 277 277